Theta_e
316 318 320 321 323 321 325 325 327 328 327 327 328 329 331 331 330 331 332 333 332 332 332 332 331 330 329 329 328 329 329 331 331 333 333 332 332 332 332 332 331 329 329 329 328 326 328 328 327 327 327 326 325 325 325 325 325 325 325 324 323 321 321 322 322 321 319 318 320 320 320 322 321 320 321 321 321 322 322 321 321 320 320 320 321
317 318 318 320 320 322 323 324 323 326 326 326 326 328 330 330 330 331 332 332 332 332 332 332 333 332 330 329 329 329 328 328 329 330 332 332 332 332 332 332 331 330 328 329 328 328 327 327 327 326 326 326 326 325 325 322 323 325 325 323 323 321 320 322 322 320 317 315 314 314 316 318 319 319 319 320 320 321 321 321 321 320 320 320 320
311 313 315 315 319 321 320 320 321 323 325 326 326 327 328 329 330 330 331 331 331 331 331 331 333 333 332 330 330 329 330 330 330 330 330 331 331 331 332 332 331 331 329 328 328 328 327 327 326 326 326 326 325 325 324 323 323 323 324 323 321 322 321 321 321 321 317 317 316 313 310 309 311 315 318 319 320 320 321 320 320 320 321 320 320
310 311 312 314 316 318 318 319 320 319 318 320 323 325 327 328 329 330 330 331 331 331 329 332 332 333 333 332 331 330 328 329 329 329 329 329 329 331 332 332 332 331 331 329 328 328 327 326 326 326 326 326 325 324 324 323 323 323 323 323 322 319 319 320 322 322 320 316 310 310 307 306 307 309 314 318 320 320 320 320 320 321 320 319 318
309 310 311 312 314 316 316 318 320 319 319 318 319 322 325 326 328 329 330 330 331 330 329 330 330 330 332 331 329 329 329 328 328 327 328 328 328 329 330 332 332 331 331 331 328 328 327 327 326 326 326 327 326 325 324 324 324 324 323 322 322 320 318 319 320 322 321 321 315 307 306 305 306 307 309 311 317 318 318 319 319 319 319 318 317
309 309 309 311 312 314 314 315 317 319 320 320 320 320 320 322 325 327 329 329 330 330 330 329 329 329 329 328 326 326 325 326 325 326 327 327 327 329 330 331 332 331 331 331 330 327 327 327 327 326 326 326 326 326 325 324 323 323 324 323 322 322 319 317 318 319 321 320 320 318 312 309 307 309 309 305 311 315 316 317 317 317 317 316 316
311 311 310 310 310 311 312 313 314 316 319 321 321 320 319 320 321 324 327 328 329 329 330 328 328 328 329 328 328 326 325 326 328 329 329 329 329 329 329 330 331 331 331 331 331 329 328 327 327 327 327 327 326 326 325 324 324 324 324 323 323 322 321 318 317 317 318 319 320 319 318 315 312 310 306 306 306 306 311 313 314 315 315 314 315
311 311 311 311 311 311 311 312 313 314 316 318 319 320 320 319 319 320 323 325 328 329 329 329 327 327 327 327 327 326 325 325 327 328 329 329 329 329 329 329 330 331 330 330 330 330 328 328 327 327 327 327 326 326 326 325 325 324 323 324 323 323 322 320 318 318 316 316 319 318 317 317 316 314 312 312 306 305 306 309 312 312 313 315 315
311 311 310 311 311 312 312 312 313 313 313 314 317 318 319 320 319 319 319 322 324 326 327 329 327 327 327 327 326 326 327 326 326 326 327 328 328 329 329 329 330 330 330 330 329 330 327 327 327 327 327 327 325 326 326 326 325 324 323 323 322 322 322 322 320 319 318 316 316 317 318 317 317 317 315 313 311 309 309 310 311 311 312 313 315
311 311 311 312 312 313 313 314 314 314 316 316 316 317 317 319 320 318 318 319 321 322 325 328 328 326 326 325 325 325 325 325 325 325 326 327 327 327 329 329 329 329 329 329 329 329 329 327 327 326 326 326 324 326 326 325 325 324 324 323 323 322 323 322 321 321 320 319 317 316 315 316 316 315 315 314 314 314 310 307 308 307 308 308 312
311 311 312 312 313 314 314 314 314 315 316 317 317 316 316 317 318 319 319 319 320 320 322 325 328 327 325 325 325 324 324 324 323 323 324 325 325 326 326 328 329 329 329 329 329 329 329 327 326 327 327 325 324 325 325 326 326 325 325 324 323 323 323 323 321 321 321 319 318 316 316 315 314 313 313 314 313 311 311 311 311 310 309 308 312
311 311 311 312 312 312 313 313 313 314 314 315 316 317 317 317 317 317 318 319 319 320 320 322 325 327 326 325 324 325 324 324 323 322 322 323 324 325 326 326 327 328 329 329 329 329 328 328 326 326 326 326 326 326 326 326 326 326 325 324 324 323 323 322 322 321 321 320 319 318 317 317 316 315 314 313 313 312 312 310 310 311 310 312 311
309 310 310 310 311 311 311 312 312 312 313 313 314 315 316 317 317 317 317 318 319 319 319 319 320 322 325 324 323 323 323 323 322 322 323 322 323 323 324 325 326 326 327 328 329 329 328 328 327 326 326 326 326 326 326 326 326 325 325 324 324 323 323 323 322 322 321 320 319 320 319 317 317 317 316 314 314 313 311 309 310 310 308 306 309
308 309 310 310 310 311 311 312 312 313 313 314 314 314 314 317 316 317 318 318 317 317 318 318 318 319 320 322 323 322 321 321 322 322 322 323 323 322 323 324 325 326 327 328 329 329 329 328 328 327 327 327 326 326 326 325 325 325 324 324 323 324 324 323 323 322 322 321 321 319 319 319 318 318 318 317 315 313 312 311 310 309 312 311 310
308 308 309 310 310 310 312 312 312 312 313 314 313 314 313 314 314 315 315 315 315 316 316 317 317 318 318 319 321 321 321 321 321 322 322 322 323 322 323 323 324 324 326 327 328 329 329 329 328 328 327 327 326 325 325 325 325 324 324 324 324 324 324 323 323 323 322 322 321 320 319 319 320 319 319 318 318 316 313 311 310 308 308 309 308
304 306 308 309 310 310 311 311 312 312 313 312 313 314 314 314 313 313 314 314 314 314 315 316 316 317 317 317 318 319 319 320 320 320 320 321 322 323 323 323 324 324 325 325 327 328 329 329 328 328 328 327 326 325 325 325 324 324 323 323 323 324 323 323 323 323 322 322 322 322 320 320 320 320 320 319 319 318 316 314 314 312 309 306 304
304 305 305 308 309 310 311 310 310 311 311 313 313 313 313 314 314 313 313 312 313 313 314 314 315 314 314 315 316 317 318 318 319 319 320 320 320 321 322 323 323 324 325 325 326 327 328 328 328 328 328 327 327 325 325 324 324 324 323 323 322 323 322 322 323 323 323 323 322 322 321 320 320 321 321 320 320 319 318 318 317 315 313 309 305
305 306 306 307 308 309 310 311 310 311 311 311 312 312 313 313 313 312 311 311 312 312 312 313 313 313 313 314 315 316 316 317 318 319 319 319 319 320 321 321 322 324 324 326 325 325 327 323 327 327 327 327 326 326 324 324 324 324 323 323 323 323 322 323 323 323 323 323 322 322 321 321 321 321 320 320 320 319 319 318 317 317 316 311 310
305 305 306 306 306 308 308 308 309 310 311 311 312 312 313 314 313 312 312 311 311 311 311 312 312 314 315 314 314 314 315 316 317 317 318 318 319 319 320 321 322 322 322 323 323 323 325 326 327 327 326 326 326 325 324 324 323 323 323 323 323 323 322 322 323 323 324 323 322 321 322 321 321 321 320 320 320 320 319 319 318 317 316 315 313
305 306 307 307 307 307 308 308 309 310 310 311 311 311 311 310 310 309 309 309 309 310 309 309 310 311 313 312 312 313 314 315 315 316 316 317 319 319 320 319 320 321 321 322 322 322 323 325 325 326 325 325 325 325 324 324 323 323 322 322 322 322 322 322 323 324 324 323 322 321 321 321 321 321 320 320 320 320 319 318 318 318 317 317 316
305 306 307 307 307 308 309 308 308 309 309 309 309 308 308 308 308 307 308 308 308 309 308 309 309 309 309 310 311 311 312 314 313 314 315 316 317 317 319 319 319 320 320 320 321 321 322 324 325 324 324 324 324 324 324 324 323 322 322 322 321 322 322 322 322 322 323 323 322 322 322 322 322 321 320 320 320 320 318 318 318 318 317 318 316
302 303 303 304 303 304 305 305 306 307 307 307 307 307 306 306 307 307 307 308 308 308 308 308 308 310 309 310 310 310 311 311 311 312 312 313 314 316 317 317 317 318 318 320 320 322 323 324 324 324 324 324 324 324 324 323 322 322 321 322 321 321 321 322 322 321 322 322 322 321 321 321 322 321 320 319 319 319 319 318 318 318 317 317 318
302 301 302 302 302 303 303 304 305 306 306 307 305 306 307 306 306 306 307 307 307 308 308 308 308 308 309 309 309 309 309 309 309 310 310 311 312 312 313 314 315 316 317 319 320 320 322 322 322 323 323 323 323 323 323 323 322 321 321 321 321 321 321 320 320 321 321 321 321 320 320 321 321 320 319 319 319 319 319 318 317 317 316 317 317
301 301 301 301 302 302 301 301 303 303 303 305 306 306 307 306 307 306 306 307 307 307 307 307 307 308 308 307 307 307 306 307 307 308 308 309 309 310 310 312 314 315 316 317 318 320 320 320 320 320 321 322 322 322 322 322 322 321 321 320 320 320 321 320 320 320 320 320 320 319 319 319 319 318 318 317 318 318 317 317 316 316 316 316 316
298 298 299 299 299 299 301 301 302 303 303 303 305 306 306 307 307 307 307 307 307 306 305 306 306 306 306 305 305 304 305 305 306 307 307 307 308 309 309 310 312 313 315 316 317 317 318 319 320 320 320 320 320 321 321 321 321 321 320 320 320 319 320 320 320 320 313 319 319 319 319 318 318 317 317 316 316 315 316 315 315 315 315 315 315
298 298 298 297 297 298 298 298 299 300 301 303 304 304 305 305 306 307 307 306 306 305 305 305 305 304 305 303 303 302 303 304 305 305 306 307 308 308 309 310 311 312 313 315 316 316 318 318 318 319 319 319 319 319 320 320 320 320 319 319 319 319 319 319 320 319 319 319 319 318 318 318 317 316 316 316 315 315 315 314 313 313 313 313 313
297 297 297 297 297 297 297 297 298 298 298 300 301 303 303 304 305 305 306 306 305 304 303 303 303 303 303 303 302 303 303 303 303 304 305 305 306 307 307 309 309 310 312 313 313 314 314 316 317 318 318 318 319 318 319 319 319 319 319 318 318 317 317 319 319 319 319 319 318 318 317 317 317 316 316 315 314 314 314 314 313 313 312 311 311
297 297 296 296 296 296 297 297 297 298 298 298 298 298 299 300 303 304 304 304 306 303 302 303 303 302 302 303 302 302 302 302 303 303 304 304 304 305 306 307 305 309 310 311 313 314 314 312 316 316 318 318 318 318 318 319 319 319 318 317 317 317 317 317 318 318 317 317 317 317 317 317 317 317 316 315 314 312 312 312 312 312 311 310 309
295 295 296 296 296 297 297 297 298 298 297 298 298 297 296 296 297 300 301 302 303 302 303 303 302 302 302 302 302 302 302 302 301 301 301 302 303 303 303 304 305 306 309 309 310 312 311 311 312 313 314 315 316 317 318 317 317 317 318 318 318 317 316 316 316 316 316 316 316 316 316 316 312 305 304 305 306 306 313 311 310 310 309 309 308
294 294 295 296 297 297 297 297 297 297 297 297 297 298 299 300 300 299 298 300 300 301 302 302 302 302 302 301 301 300 301 301 300 301 301 301 300 301 301 301 302 303 304 304 305 307 309 310 311 311 311 312 315 317 308 306 308 316 317 318 317 316 315 315 314 313 313 313 314 315 314 302 300 299 299 300 301 301 303 310 312 309 308 307 306
294 294 295 296 297 297 297 297 297 298 298 299 300 300 300 299 299 299 300 299 299 301 301 300 301 301 301 300 299 300 299 299 300 300 300 299 300 299 299 299 299 300 301 302 302 305 307 307 308 309 309 310 312 312 304 305 305 306 313 315 316 316 315 313 312 312 312 310 310 311 310 302 299 297 299 298 300 300 300 301 302 302 304 310 308
293 294 295 295 296 297 297 297 297 298 299 298 299 298 297 298 299 300 300 300 301 302 301 301 301 301 300 299 299 297 297 299 299 299 299 299 297 296 297 297 296 297 298 295 299 302 304 305 307 306 307 308 310 304 304 302 302 303 304 312 315 314 313 313 312 311 311 309 307 306 304 304 305 306 306 302 299 297 298 298 299 298 299 300 302
293 293 294 294 295 295 296 296 296 299 300 299 299 298 298 299 298 298 299 299 300 301 301 302 302 301 300 300 297 297 298 298 299 299 299 297 296 295 295 295 296 295 292 296 298 299 300 301 302 305 306 306 307 303 302 302 300 300 301 306 314 313 311 310 310 310 309 308 306 304 301 299 302 294 297 301 300 297 294 295 295 295 296 297 297
292 293 294 294 295 295 296 296 296 296 296 296 297 298 299 298 298 298 298 299 300 300 300 301 301 301 301 299 296 296 298 299 299 298 296 296 294 296 295 293 290 290 293 295 293 295 297 299 301 303 304 305 305 301 301 301 301 299 299 302 311 310 309 308 308 308 308 306 305 303 301 299 296 295 297 298 298 296 294 294 294 295 294 292 292
293 294 294 294 294 295 295 295 296 297 297 297 298 298 299 300 301 300 300 300 299 299 300 301 301 301 300 297 297 297 298 298 298 296 295 295 295 295 294 293 292 292 292 293 293 292 294 295 297 299 300 302 303 299 299 299 300 300 300 300 307 308 307 306 307 306 307 306 305 304 302 300 297 296 296 297 297 296 295 294 294 294 294 293 293
293 294 295 295 295 295 295 295 296 296 296 297 297 298 298 299 300 300 300 299 299 299 299 298 298 299 299 297 297 297 297 297 297 296 295 295 295 295 295 294 291 291 290 290 290 290 292 292 294 295 297 298 300 298 297 298 298 299 299 302 305 305 305 305 304 303 303 304 303 302 301 300 297 296 294 294 295 296 295 293 293 293 293 292 292
294 294 294 293 293 292 293 293 293 294 295 296 296 296 296 296 297 298 298 298 298 298 298 299 298 298 297 297 297 298 297 297 296 295 295 295 295 295 294 293 291 292 291 290 291 291 291 292 292 293 295 296 297 296 296 296 297 298 298 302 302 303 303 302 301 300 299 299 299 299 300 299 296 296 293 294 295 294 295 293 292 292 292 291 290
290 289 288 288 289 289 290 290 291 291 292 292 291 291 292 293 293 294 295 295 296 296 296 296 296 296 297 297 297 296 296 296 295 295 295 295 294 294 294 293 292 293 292 292 292 291 291 292 293 294 295 295 296 295 293 295 295 296 297 300 300 301 300 299 297 295 296 297 296 292 293 298 297 296 293 294 295 294 294 293 292 290 288 288 288
287 285 285 286 286 286 287 288 288 288 287 287 287 288 288 289 290 291 292 293 293 290 289 289 290 292 293 295 295 295 295 295 295 295 295 294 294 294 294 292 292 292 293 293 291 292 292 292 293 294 291 294 295 294 292 293 294 295 295 299 299 299 298 297 296 293 291 292 291 290 290 293 295 293 293 294 294 293 294 292 292 290 288 288 288
284 284 283 283 283 284 284 285 286 285 283 284 284 285 284 286 287 288 289 289 287 286 286 287 289 290 292 293 294 294 294 293 294 294 294 294 293 293 292 291 290 291 292 292 291 292 292 293 293 293 295 295 295 296 291 292 293 294 295 297 297 297 296 296 294 292 290 289 288 289 289 292 293 292 293 294 293 293 292 291 290 289 288 287 288
282 281 282 280 281 282 283 283 284 281 280 281 282 281 281 283 283 284 284 284 284 283 284 285 287 288 290 291 292 292 292 293 293 293 293 292 291 291 290 289 290 290 289 290 290 290 291 292 291 292 293 294 295 296 291 290 292 293 294 295 294 297 298 295 291 290 290 289 288 288 288 290 292 292 292 292 292 292 290 289 289 288 288 288 288
279 280 279 278 279 280 280 280 280 279 279 279 279 279 279 280 281 281 281 282 281 282 283 284 285 286 287 288 289 290 290 291 291 291 290 291 290 289 289 289 288 288 289 289 289 289 290 290 290 288 291 293 292 290 291 289 291 292 293 294 292 292 293 292 290 290 290 289 288 287 287 288 290 291 291 291 292 292 291 288 289 290 290 290 287
277 277 277 277 277 278 278 278 278 278 277 278 278 277 278 278 278 278 279 280 280 281 282 283 284 285 286 287 287 287 288 289 289 288 288 288 288 288 288 288 287 288 288 288 288 288 288 288 287 284 286 286 286 287 287 288 289 291 292 293 292 290 292 291 291 290 289 288 287 287 286 287 289 289 290 291 291 291 289 289 291 290 290 289 287
276 276 275 276 276 276 276 276 277 276 276 277 276 275 275 275 275 277 277 277 278 279 281 282 284 285 286 286 286 287 287 287 287 287 286 286 287 286 286 287 285 287 287 287 287 287 286 286 286 284 283 283 283 283 286 287 288 289 291 291 290 291 290 288 288 288 286 285 285 285 286 287 288 288 290 290 290 289 287 290 291 290 289 287 285
274 274 274 274 274 274 274 274 275 275 275 275 275 274 273 273 274 275 274 275 276 278 279 281 284 285 285 285 285 285 286 285 285 285 285 285 285 285 286 285 284 285 285 286 285 285 285 285 284 284 283 282 283 282 284 285 286 287 289 290 290 290 291 290 286 285 285 285 286 286 286 287 287 288 289 289 289 288 289 289 289 287 286 285 284
274 274 273 273 273 273 273 272 273 274 273 274 273 273 271 272 273 273 273 274 275 276 279 282 285 285 286 286 284 284 284 284 284 284 284 284 284 284 284 284 284 283 284 285 284 284 284 283 283 283 281 282 284 284 285 285 285 286 286 288 288 288 286 286 285 285 285 287 287 287 287 287 287 287 287 286 285 286 287 286 286 285 285 285 284
272 273 273 272 272 271 271 271 271 273 272 272 272 272 272 271 271 271 272 272 274 277 280 284 285 285 286 286 285 285 285 284 282 282 282 282 283 283 282 282 281 281 282 283 284 284 283 284 284 281 281 282 283 284 285 285 285 284 282 282 283 284 284 285 284 284 284 285 285 285 285 286 285 285 285 285 284 285 285 284 284 285 285 285 285
272 272 272 271 271 270 270 270 270 271 271 271 271 271 271 270 270 270 270 271 274 277 280 283 283 284 284 285 285 285 285 283 282 282 281 282 282 283 282 281 281 280 280 281 282 282 282 283 282 282 282 282 283 284 284 284 283 283 282 282 283 283 283 283 283 283 284 284 284 284 284 285 285 284 284 283 283 284 284 284 284 284 284 284 284
271 271 271 270 270 269 269 269 269 270 269 269 270 270 270 269 269 269 269 270 273 276 279 282 282 282 282 283 284 284 284 283 282 281 281 281 281 282 282 282 283 283 281 281 281 282 282 282 283 283 283 282 282 282 283 284 283 284 282 282 283 283 284 283 284 285 284 284 284 284 283 283 283 283 283 283 283 283 283 284 284 284 284 284 283
271 270 269 269 269 268 268 268 268 269 268 268 268 269 269 268 268 268 269 269 271 274 277 277 279 280 281 281 282 283 283 282 282 281 280 280 282 282 282 281 281 283 284 285 285 282 282 282 282 283 284 282 281 283 285 286 286 286 286 286 285 285 285 285 285 286 284 283 283 282 282 281 281 282 282 282 282 282 282 282 283 283 284 283 283
269 268 268 268 269 269 268 267 268 268 267 267 267 267 267 267 267 268 268 269 270 272 274 274 275 276 278 279 279 279 280 281 281 280 280 279 278 280 282 283 283 283 284 284 284 285 285 285 284 283 284 285 285 285 285 285 285 285 286 286 286 286 286 286 286 284 283 282 282 281 281 281 281 281 282 282 283 282 282 282 282 283 283 283 283
Wind_Speed
5 5 5 4 4 4 8 7 7 7 6 7 8 9 10 11 10 11 11 10 9 9 9 9 10 8 7 9 11 10 10 10 9 9 9 9 10 11 11 10 10 11 12 12 12 11 10 9 10 9 8 9 10 11 11 10 10 9 9 8 10 9 8 8 8 5 5 7 7 9 9 8 11 11 13 12 11 10 9 9 8 8 8 8 8
4 4 4 3 2 4 5 6 6 8 8 8 9 11 11 10 11 11 9 11 11 12 11 10 10 11 11 12 11 9 9 10 11 10 11 10 10 10 10 10 10 10 11 12 11 12 11 10 10 11 10 9 10 9 9 9 10 10 9 9 9 11 9 7 7 6 8 9 6 5 7 9 13 14 15 15 14 11 10 10 9 9 9 8 6
5 5 5 5 5 5 5 6 6 9 10 11 11 9 9 10 10 10 11 12 12 12 11 11 10 10 10 8 9 8 8 9 8 9 8 9 9 10 10 10 10 10 11 12 12 12 12 11 11 10 11 10 9 10 10 11 11 12 12 11 8 8 9 6 9 12 8 4 4 4 8 4 4 7 10 13 12 12 9 10 10 10 10 7 7
9 8 8 7 7 8 7 8 10 9 8 8 9 11 10 10 11 12 12 13 12 13 13 13 13 12 10 8 7 8 7 7 9 8 8 9 11 11 10 10 11 11 12 12 12 12 13 13 11 10 11 11 11 10 11 12 11 11 12 12 9 8 9 10 9 10 9 7 5 8 4 2 7 6 8 8 11 12 12 12 9 9 8 7 6
9 8 8 8 8 10 11 10 10 10 10 10 10 11 10 13 13 13 12 12 11 12 14 12 9 8 8 7 5 6 5 7 7 8 10 10 9 9 13 12 12 12 12 13 13 14 14 13 12 12 11 11 11 11 12 13 12 11 11 11 13 12 10 7 8 11 12 11 7 3 2 3 6 3 1 5 6 7 8 8 8 8 7 7 7
8 8 8 9 10 9 9 10 10 11 12 12 12 12 10 10 11 12 11 11 11 12 13 11 10 11 10 10 10 9 9 8 11 13 12 12 14 14 12 12 13 12 11 12 13 12 13 14 13 12 12 11 11 12 11 9 12 13 13 12 12 13 10 7 8 10 13 13 14 10 4 4 2 1 3 4 2 4 6 5 7 7 6 7 6
11 11 11 10 9 8 9 9 9 10 11 10 10 11 12 11 11 12 12 11 12 12 12 11 11 10 13 14 14 14 13 12 12 10 10 11 9 9 11 11 13 13 12 12 12 13 12 12 13 13 12 11 11 10 12 13 12 12 11 12 13 10 10 11 11 8 8 11 13 15 13 7 2 1 4 1 4 3 2 5 5 5 6 5 6
12 12 13 13 13 12 13 13 11 12 10 9 8 9 12 14 12 11 9 10 10 10 11 12 12 12 12 12 12 12 13 13 12 11 10 8 10 11 10 10 12 13 13 13 13 13 13 13 13 13 13 12 11 12 13 12 10 10 12 12 10 10 13 13 12 7 11 10 11 12 12 12 8 5 5 5 4 4 5 3 1 3 4 5 6
13 11 11 12 13 14 14 14 14 14 11 10 9 8 8 9 10 9 10 9 9 9 10 11 12 13 12 11 11 10 11 10 8 8 9 9 10 9 10 11 11 13 13 14 14 14 13 13 14 13 13 13 12 12 11 11 14 12 12 12 13 12 11 12 9 11 10 10 8 10 10 9 8 9 7 5 8 7 10 7 9 5 4 5 6
12 13 13 13 13 13 11 11 10 10 9 8 7 6 7 7 8 9 10 9 9 9 10 11 13 12 11 11 12 11 9 9 8 9 9 9 11 11 11 10 11 11 13 14 14 14 14 14 13 15 15 13 11 13 12 12 12 13 14 13 13 13 11 11 13 11 9 7 9 8 9 8 8 7 9 10 8 10 11 6 6 7 8 5 6
11 12 13 12 9 9 9 9 9 8 8 9 9 8 6 6 6 7 8 8 9 10 11 12 12 12 12 12 13 13 13 12 11 11 10 9 10 11 11 11 11 12 11 13 15 14 14 14 14 14 14 13 12 12 13 13 13 13 12 12 13 14 12 12 11 11 10 10 9 10 12 12 12 12 11 10 10 8 8 11 10 7 8 7 7
11 11 11 9 7 8 7 9 9 9 7 7 7 7 7 6 6 7 6 6 7 8 9 10 10 12 12 13 14 14 14 12 13 14 12 13 12 11 10 10 10 10 11 11 12 14 14 14 15 15 14 13 14 13 13 13 12 11 10 11 12 13 12 11 12 12 14 11 11 10 11 11 10 10 8 8 10 10 9 8 7 5 7 9 4
9 10 9 7 8 9 9 9 8 7 8 7 7 6 6 6 6 7 7 6 8 7 7 8 8 9 11 12 12 12 12 13 12 12 11 11 11 11 10 11 10 10 11 12 13 16 14 14 14 15 14 15 16 15 14 13 11 11 11 12 12 13 13 14 12 14 14 13 12 11 8 9 11 9 7 7 7 6 8 9 8 6 8 4 4
7 8 9 9 8 8 8 7 7 7 7 8 7 6 5 5 6 6 9 7 6 6 8 8 9 10 10 11 11 10 11 11 11 11 11 10 9 10 11 10 10 11 11 12 12 13 13 14 15 16 16 15 15 15 14 13 12 12 11 12 13 12 11 14 14 13 13 14 11 10 10 9 9 9 9 8 8 8 9 10 8 5 7 9 4
7 7 8 9 9 8 8 7 6 6 6 7 6 6 6 6 6 6 6 6 6 7 6 8 9 9 9 10 10 9 10 10 10 10 10 11 10 11 11 10 10 11 11 11 11 13 14 14 14 14 14 14 13 13 12 12 12 11 11 12 11 11 13 13 13 14 14 14 14 13 11 10 8 8 9 10 9 10 8 7 7 8 6 6 7
5 5 6 7 9 9 7 6 5 5 6 5 5 5 5 6 5 6 6 6 6 6 7 8 8 7 7 7 9 9 9 8 9 8 9 10 11 11 12 11 10 10 9 9 11 12 13 13 14 15 14 13 13 13 13 12 12 13 11 11 12 9 12 15 13 13 14 15 14 13 11 12 10 9 8 9 9 9 8 6 7 8 9 9 4
7 6 6 7 7 7 8 6 5 4 5 5 6 5 5 5 5 5 5 5 6 6 6 6 6 6 7 7 7 7 9 9 10 10 10 9 9 10 10 10 10 9 9 9 10 10 11 12 13 13 13 13 13 13 13 12 12 12 12 12 12 10 11 13 12 12 12 13 12 14 13 11 10 9 9 9 9 8 9 8 8 10 9 9 8
9 8 8 7 6 7 6 4 5 5 5 5 5 4 4 4 5 5 5 5 6 5 5 5 6 6 7 7 7 8 8 9 9 10 9 9 9 8 8 9 10 10 9 8 8 9 10 12 12 13 13 13 13 13 13 13 12 11 12 12 12 11 11 10 11 12 13 11 12 12 12 11 10 10 11 10 9 10 9 10 9 8 8 10 8
6 7 7 6 5 4 4 5 2 2 2 2 2 1 1 1 2 4 6 7 6 5 4 4 5 5 5 7 7 7 7 7 7 8 7 8 10 9 10 10 9 9 9 9 7 8 9 10 11 12 12 13 12 12 12 12 12 11 11 12 12 12 11 11 11 11 12 11 13 14 13 12 11 12 11 10 10 10 10 9 9 8 9 10 10
9 9 7 4 3 4 3 3 4 5 5 3 1 0 1 3 4 5 5 5 5 6 5 6 6 5 6 5 6 6 7 7 8 8 8 9 10 9 10 9 11 8 8 8 8 9 8 9 9 10 10 10 11 11 12 12 12 13 12 12 11 12 13 13 12 11 10 11 13 14 14 13 12 11 11 11 10 10 10 10 9 9 9 9 9
5 6 7 9 8 7 6 5 3 2 1 1 1 3 4 4 4 5 5 6 6 7 5 6 5 5 5 7 8 6 7 7 7 8 9 9 9 9 9 9 7 9 7 8 9 10 10 9 9 10 11 11 12 12 12 12 13 13 12 12 11 12 14 13 12 13 12 12 13 14 13 13 12 12 11 10 10 11 10 10 9 9 10 9 9
6 6 6 6 6 6 6 5 3 1 1 2 4 4 5 5 5 5 5 6 7 7 6 6 5 5 6 7 7 6 7 6 7 7 9 9 9 9 9 7 8 9 7 10 10 9 9 10 10 11 11 12 12 13 13 12 13 13 13 11 12 13 14 14 13 14 14 12 13 14 14 13 12 13 11 12 11 11 11 11 10 11 10 10 10
5 5 4 4 4 4 4 4 3 3 4 4 5 5 5 6 5 6 6 8 7 8 6 5 5 6 7 7 6 6 5 6 7 7 8 9 8 8 6 7 8 8 7 9 9 8 9 8 9 9 10 11 12 12 11 12 12 13 14 13 13 14 15 14 14 16 15 13 13 14 15 13 10 11 12 11 11 11 10 11 11 9 10 10 10
5 5 4 4 2 2 3 4 5 4 5 5 6 6 6 6 6 6 7 9 8 7 7 6 6 7 7 6 6 6 6 6 7 8 8 8 8 8 6 8 8 7 9 8 8 8 8 8 9 9 10 11 11 11 11 12 14 14 14 15 14 14 14 15 15 15 14 14 15 13 13 13 12 12 11 10 10 10 11 10 10 9 10 11 9
6 7 7 6 5 5 5 5 5 5 5 5 6 6 6 7 6 8 9 9 8 7 6 7 6 8 7 7 7 6 6 7 8 7 8 8 8 8 7 8 8 8 8 8 8 7 8 9 10 11 11 11 11 11 11 12 12 12 13 14 14 14 14 15 15 14 14 14 14 14 13 11 12 13 12 11 10 11 10 10 10 10 10 9 8
10 12 12 12 11 10 10 10 9 9 8 7 6 6 6 7 8 8 9 8 9 7 6 7 7 7 8 8 8 6 7 8 8 7 8 8 8 8 8 7 7 9 8 8 8 8 9 10 10 10 10 10 10 11 12 12 12 12 12 13 13 14 14 14 14 13 13 13 13 13 12 11 12 14 13 11 11 12 10 10 10 9 8 8 10
16 17 18 19 19 21 19 16 13 11 9 8 8 8 8 7 8 8 8 9 8 6 6 6 7 7 8 8 7 8 8 7 7 8 7 7 8 8 8 8 7 8 8 8 8 9 8 9 10 9 10 11 11 11 11 12 12 12 12 12 13 13 13 13 13 13 13 12 12 12 12 12 13 13 13 12 11 11 11 12 11 10 9 9 9
15 19 21 21 22 21 19 18 17 15 14 11 9 8 8 7 9 8 6 6 6 5 6 7 7 8 8 10 8 8 8 8 7 6 7 7 7 8 8 8 7 8 9 9 9 9 8 7 9 10 11 10 10 11 11 12 12 12 12 13 13 13 13 12 12 12 12 12 12 12 12 12 13 12 12 10 10 10 8 9 8 9 9 9 9
18 18 18 18 17 17 17 15 14 13 13 14 13 11 7 6 5 5 5 6 6 6 7 8 8 9 10 9 8 7 7 7 7 6 7 7 8 8 8 8 7 7 8 8 7 8 8 9 9 9 10 9 10 11 11 12 13 13 13 13 13 13 13 12 12 11 11 11 11 11 11 11 12 14 15 13 12 11 9 9 8 9 9 10 10
18 18 17 16 16 17 17 17 14 12 12 11 10 8 7 6 6 5 5 6 5 7 8 9 9 10 10 8 8 6 6 7 6 7 8 8 8 8 8 8 8 8 8 7 7 7 8 9 10 10 10 10 11 10 12 18 16 12 12 11 10 11 11 11 11 10 9 10 11 11 11 15 15 15 15 15 16 16 16 14 10 9 10 8 7
15 15 16 17 17 15 14 14 15 14 11 10 8 7 5 6 6 6 6 5 6 7 9 8 9 9 9 7 6 7 7 7 8 7 7 8 9 8 7 7 7 7 8 7 7 9 9 8 9 10 11 11 11 10 15 16 18 19 13 11 11 11 10 10 10 11 11 10 9 9 8 11 13 14 14 17 16 17 17 18 15 16 15 14 12
13 14 13 14 15 14 12 12 12 11 10 6 5 5 5 6 6 7 8 7 8 8 8 8 9 9 7 7 6 6 6 7 7 8 9 9 8 7 7 7 6 7 7 6 8 10 9 10 10 9 10 11 12 15 15 14 16 17 16 12 10 10 10 10 10 11 11 10 9 8 7 7 9 11 9 11 14 15 15 15 14 14 14 15 12
11 6 3 5 5 4 5 5 5 6 6 7 8 7 7 6 6 6 6 7 8 9 10 10 9 8 8 7 6 6 6 7 8 9 8 7 7 7 7 7 8 7 5 7 10 8 10 9 9 11 12 12 11 15 16 16 14 14 16 15 11 11 10 10 10 10 10 10 9 8 8 7 7 12 11 9 8 7 8 10 9 9 8 8 6
6 5 5 6 9 9 8 7 7 7 6 7 7 7 7 5 5 6 6 7 7 9 8 9 9 10 9 7 5 6 7 9 8 7 6 7 7 9 8 7 6 5 6 8 7 9 9 9 10 11 12 12 12 14 16 17 16 15 15 13 10 10 10 10 10 10 10 10 10 10 9 9 7 7 8 9 8 8 8 7 7 7 7 6 6
7 8 9 8 7 7 8 9 8 8 7 8 9 8 10 11 11 10 8 8 7 7 8 8 9 9 7 6 6 6 7 8 8 7 7 8 9 9 8 8 7 8 9 10 9 9 10 9 9 10 11 13 13 15 14 17 18 18 16 13 9 8 8 9 10 10 11 11 11 11 12 11 10 10 9 11 10 10 9 8 7 7 7 6 6
4 4 5 5 6 6 6 7 7 7 8 6 6 7 8 9 11 11 10 8 7 8 8 7 7 8 8 7 6 6 7 8 8 7 8 9 9 10 11 9 8 8 8 6 7 7 9 9 9 9 11 14 15 16 16 17 17 17 16 11 11 10 11 10 10 10 11 10 10 11 11 11 11 10 12 17 15 12 11 10 9 8 6 5 5
6 7 8 9 8 8 7 7 7 8 9 9 10 10 9 9 10 10 10 10 9 10 9 9 8 7 7 7 7 8 8 9 8 8 9 9 10 10 10 6 7 8 9 8 9 8 9 9 9 9 11 14 13 13 15 16 17 17 13 11 11 11 11 12 11 10 9 9 9 10 10 10 10 10 13 17 16 14 10 11 10 9 7 6 5
7 8 8 8 8 9 9 10 10 10 9 10 11 11 11 10 10 9 9 9 9 8 8 10 11 12 11 10 8 8 8 9 8 9 10 10 9 8 9 6 8 9 10 10 9 8 8 9 10 11 12 12 13 11 13 16 17 17 16 12 11 11 11 10 8 7 8 8 9 13 12 10 11 10 15 16 16 14 10 10 10 9 8 7 5
8 9 9 9 10 9 8 9 9 9 11 11 11 11 10 10 10 9 8 8 6 8 11 11 12 12 12 11 11 10 9 9 10 10 9 9 9 9 8 6 7 8 10 8 7 8 9 8 9 11 12 13 12 10 12 14 16 16 15 11 9 9 10 10 9 8 5 6 6 8 12 10 9 11 17 16 16 13 10 10 10 9 8 8 7
8 7 8 9 9 8 8 8 9 9 11 11 10 9 8 9 9 9 10 9 10 11 11 11 11 11 10 10 9 10 10 10 10 11 9 9 8 8 7 7 7 7 8 8 8 8 9 9 8 9 9 10 11 9 9 14 15 16 18 12 7 9 11 11 8 8 7 5 5 5 6 8 9 13 15 15 14 12 8 6 7 8 8 9 6
9 8 8 7 8 6 7 7 7 8 9 9 8 9 8 7 8 8 9 10 12 13 13 12 11 11 11 11 10 9 11 12 9 10 10 9 8 8 7 6 7 7 6 8 8 7 8 9 7 6 8 8 9 9 8 15 15 16 16 15 7 10 7 6 6 6 6 7 7 6 3 5 10 13 13 13 12 10 9 7 8 9 9 8 11
4 7 9 9 8 7 8 7 7 8 8 7 8 7 8 9 8 8 10 12 12 12 11 12 12 11 11 11 11 11 9 10 10 9 10 11 7 6 6 6 7 6 7 8 7 7 7 8 6 5 6 7 7 8 5 11 14 13 14 14 7 6 5 7 7 7 6 5 5 5 5 5 9 11 12 13 14 12 12 7 8 8 11 14 11
7 8 9 9 7 8 8 9 8 9 9 9 10 9 9 10 10 12 12 12 13 13 12 12 11 10 9 9 9 10 10 8 9 8 8 10 8 6 7 6 6 6 7 8 8 6 6 7 5 3 1 1 1 0 5 7 11 11 11 10 4 2 6 6 8 8 8 6 5 5 5 7 9 10 11 13 13 11 6 5 9 11 11 13 10
5 6 9 9 7 8 8 8 8 9 10 10 11 10 10 11 12 13 13 13 12 13 13 12 11 11 10 8 7 8 8 8 8 8 7 8 8 7 6 6 5 6 6 7 7 5 5 6 6 3 1 1 2 3 1 3 6 10 8 4 3 4 6 5 5 6 5 6 7 6 7 9 8 9 11 12 13 8 4 8 10 10 10 8 5
8 8 8 7 8 9 9 10 8 10 10 10 10 10 11 11 13 13 13 14 14 13 12 12 12 11 10 8 6 6 8 6 7 7 7 7 7 6 7 5 4 4 5 6 7 4 6 6 4 4 1 1 2 4 3 2 1 4 7 6 3 5 7 9 5 5 7 7 9 13 15 13 11 12 14 14 11 9 9 8 11 11 8 5 5
7 8 9 7 7 7 8 10 10 10 11 10 10 10 12 12 13 13 14 14 13 12 11 11 9 9 10 9 6 6 6 6 8 8 8 8 9 8 7 6 6 5 5 5 6 5 5 4 3 2 1 3 4 4 4 3 2 1 1 5 5 7 8 7 7 6 9 13 16 17 17 15 14 12 10 7 6 7 9 11 11 9 5 5 5
10 9 9 8 7 9 9 11 11 11 11 11 10 10 10 12 13 13 13 13 13 11 11 9 8 9 8 8 7 6 6 6 8 7 7 7 8 8 7 7 7 7 7 6 6 4 3 3 3 3 4 4 4 4 4 4 3 4 3 4 7 8 11 12 9 8 10 9 12 10 9 9 8 10 9 9 9 9 8 6 5 5 6 5 5
8 8 9 7 7 7 9 10 10 10 11 11 10 11 11 12 12 12 13 13 12 12 11 9 10 8 8 9 7 8 7 5 7 7 7 8 7 6 6 7 7 6 6 6 6 4 2 3 3 4 4 5 5 4 4 3 4 4 4 4 4 6 6 6 7 6 7 8 8 9 10 7 7 7 7 6 6 6 6 5 3 3 4 4 5
9 9 8 9 7 7 7 8 8 9 10 10 10 10 10 12 12 12 12 12 12 14 12 10 10 9 9 9 7 7 6 5 5 6 6 7 7 7 7 5 6 5 3 4 1 4 5 3 4 3 5 5 4 4 3 5 4 4 3 4 5 6 7 7 8 11 9 7 7 7 6 6 5 7 6 6 6 7 5 5 4 4 4 4 3
6 6 5 5 5 5 5 6 7 8 9 10 10 11 10 10 11 11 11 11 12 12 11 11 10 9 9 9 8 7 6 5 4 4 4 4 10 14 10 6 5 10 13 12 7 4 2 3 7 6 3 5 5 5 10 12 10 10 10 10 9 10 11 10 12 13 8 7 6 6 4 5 5 6 6 6 7 7 6 5 5 4 4 3 3
6 5 6 6 7 6 5 5 8 8 8 9 10 10 11 12 12 12 11 10 11 10 9 9 11 10 11 10 8 8 7 5 4 3 3 4 4 6 14 17 14 12 14 15 15 15 13 10 9 9 10 16 14 15 15 14 13 12 11 11 12 13 12 12 11 9 7 6 6 6 5 5 5 5 5 5 5 6 5 5 5 4 3 4 4
Wind_Direction
223 215 227 222 198 162 179 172 164 174 183 182 185 190 188 188 183 189 191 189 185 190 192 189 194 198 204 207 213 209 209 209 214 214 212 210 204 205 207 206 198 191 193 195 201 202 207 209 211 218 215 208 206 211 209 210 208 209 212 209 215 220 224 215 221 209 244 257 250 257 261 254 256 252 251 247 240 238 233 233 231 227 231 231 231
224 217 231 235 223 138 145 154 162 172 195 193 196 196 196 194 189 194 182 190 195 195 195 195 196 197 196 205 206 206 205 205 213 212 215 215 211 209 209 206 201 195 193 194 197 200 205 207 209 211 212 215 214 210 208 209 207 209 207 216 210 216 225 202 207 172 232 235 245 273 263 248 239 235 236 240 237 238 233 235 237 234 234 228 222
233 225 221 218 212 190 175 186 193 191 190 194 201 199 198 196 200 193 190 190 198 197 194 200 200 201 200 206 200 211 212 211 214 215 214 217 217 215 212 211 205 202 193 194 195 201 204 206 211 207 209 210 211 209 207 208 207 207 204 209 205 215 223 207 198 191 222 201 229 289 274 282 280 233 237 235 231 230 226 229 227 229 229 220 218
224 218 223 216 212 209 204 204 207 211 208 206 203 200 200 199 202 199 200 196 196 198 198 202 198 199 201 201 197 200 201 202 207 209 212 213 219 215 218 212 207 207 198 195 199 200 201 205 206 207 208 205 208 208 206 210 206 208 207 207 196 207 210 218 204 194 200 158 213 208 241 244 300 261 228 236 217 219 215 220 216 220 216 218 214
224 223 222 221 215 215 214 211 206 204 206 209 208 204 204 202 202 201 202 202 201 200 201 198 190 193 196 199 195 200 208 194 197 213 211 212 217 214 219 212 211 209 207 203 200 201 201 202 203 207 206 206 205 209 209 210 207 209 207 206 204 208 210 208 205 204 205 205 200 161 248 261 226 260 357 278 203 213 218 210 205 203 209 216 215
237 231 226 223 223 223 220 215 210 208 210 211 210 210 207 209 207 204 204 203 204 203 200 194 193 192 185 186 198 201 205 198 201 207 203 204 210 213 213 209 212 212 208 211 208 206 204 203 203 203 207 208 206 208 209 206 209 208 207 208 213 212 209 192 211 206 213 208 222 235 177 193 204 269 39 281 319 229 211 213 196 204 204 206 211
241 242 241 241 238 232 232 225 220 215 218 214 212 208 211 213 212 207 205 206 205 204 195 190 197 200 198 198 198 199 204 212 213 212 206 212 213 211 212 210 211 211 211 209 210 208 209 207 206 207 208 209 208 206 207 208 207 208 203 207 212 207 201 219 215 202 204 220 218 228 247 245 172 34 238 323 304 313 270 210 222 207 191 201 214
231 233 235 237 239 238 240 241 239 237 231 224 217 206 209 214 216 213 209 210 209 205 197 191 196 201 205 207 207 208 209 215 210 214 211 204 207 210 208 210 210 211 213 212 211 208 207 209 208 209 210 210 206 210 211 206 203 206 205 209 208 205 206 215 220 196 193 222 212 223 230 245 248 236 228 226 238 288 287 323 326 247 236 225 217
221 228 231 232 233 234 235 238 241 244 242 235 229 221 215 217 220 218 215 212 212 203 201 196 200 202 206 207 213 219 220 225 219 212 211 208 214 207 207 208 209 210 211 212 212 210 206 208 207 210 213 214 209 213 213 203 201 200 200 204 207 208 208 213 215 215 209 215 192 220 223 227 231 237 241 206 225 232 260 241 256 295 272 244 240
215 227 231 228 230 233 234 235 239 237 238 239 237 226 223 216 217 215 218 213 208 205 202 200 202 203 206 208 213 219 221 230 222 217 212 206 217 213 211 208 207 207 209 211 211 211 211 208 208 210 213 214 214 216 213 208 203 202 203 205 206 208 207 207 212 217 220 217 199 200 206 215 223 228 219 220 229 222 243 230 230 221 237 257 247
208 221 231 233 230 232 233 234 235 235 228 228 234 229 225 224 221 223 222 213 210 211 203 204 201 203 208 208 212 218 219 220 223 227 221 216 217 216 214 212 207 207 203 207 208 207 211 209 210 212 212 212 213 216 215 211 209 205 203 201 205 207 207 209 212 217 216 221 214 200 208 202 205 206 209 204 205 211 222 243 245 235 245 271 258
207 214 229 234 242 241 233 236 238 239 241 236 235 228 225 226 226 235 240 227 222 219 215 211 202 206 209 209 214 218 219 221 222 226 221 223 222 221 216 216 214 211 205 204 206 206 207 208 209 212 211 210 212 213 215 213 210 206 201 202 205 208 209 208 212 214 215 218 222 213 212 209 213 218 212 200 197 213 212 235 229 235 250 240 242
207 213 219 220 225 232 232 236 238 244 246 245 239 232 226 225 224 228 240 233 229 225 223 221 214 213 213 218 223 225 228 229 231 234 228 228 227 228 221 221 216 215 211 208 208 204 205 206 206 209 210 211 211 209 212 210 208 206 205 205 205 204 206 207 210 214 211 216 219 221 213 206 215 214 201 200 208 199 204 234 238 211 243 258 238
209 207 207 215 222 230 229 227 226 231 235 236 238 235 228 222 221 218 234 232 233 233 231 229 224 223 221 223 226 227 233 235 236 237 236 234 232 232 229 228 222 220 215 216 209 207 208 209 209 212 212 212 210 209 208 207 205 206 206 206 206 209 206 208 213 214 215 218 218 220 222 215 210 205 205 202 204 196 208 217 229 223 228 248 242
215 207 210 216 224 228 229 228 226 227 232 233 232 231 227 231 227 223 236 241 234 231 229 230 229 227 227 226 228 227 232 234 238 236 236 236 235 235 234 230 228 225 219 218 208 207 209 210 212 214 213 213 210 209 208 205 204 206 209 209 208 205 209 208 213 212 216 215 215 219 222 227 220 202 202 209 205 214 213 207 198 227 243 237 247
222 219 231 234 226 234 238 233 227 227 235 238 232 221 216 226 224 226 226 238 238 237 232 229 233 232 231 230 230 230 231 235 242 239 239 236 238 235 237 234 234 233 230 220 214 208 207 209 211 214 212 211 210 209 207 205 203 205 208 209 210 202 208 210 213 213 219 217 220 220 222 227 222 217 209 206 207 209 213 201 196 210 226 251 216
241 245 233 230 234 239 241 233 230 235 239 231 231 223 217 224 231 243 246 247 248 242 236 234 238 240 241 234 233 233 233 234 237 242 242 242 241 242 242 241 240 236 235 225 222 214 211 208 210 213 211 209 208 207 206 206 203 205 207 207 212 207 210 213 212 215 219 218 222 219 222 224 222 221 221 214 210 207 208 208 202 206 206 237 242
221 224 228 226 223 229 237 233 219 231 241 251 251 238 222 221 223 236 251 254 257 253 248 239 237 239 243 243 241 235 236 239 240 243 244 245 245 244 244 244 239 237 235 232 223 218 215 210 211 211 209 207 206 203 203 204 202 206 207 209 212 209 214 216 215 216 218 216 221 220 221 223 218 217 219 216 212 210 209 211 210 209 198 216 226
223 225 231 239 242 247 245 254 277 258 250 256 286 315 303 255 234 227 244 249 255 258 254 255 236 234 234 239 240 243 242 244 245 246 245 245 246 243 243 242 245 240 237 236 229 225 217 214 212 211 206 206 202 201 197 200 201 207 208 211 210 209 214 216 216 213 217 214 217 219 217 222 215 217 217 213 209 206 212 209 209 203 209 215 229
214 214 217 220 242 271 307 348 28 46 54 50 36 8 288 259 266 274 281 288 287 279 271 265 255 246 253 250 248 240 240 239 240 242 245 244 245 243 244 246 243 240 238 236 234 232 224 218 212 209 205 200 199 198 195 198 200 207 206 210 209 207 213 217 218 215 216 215 216 218 216 218 214 215 215 213 208 206 206 207 205 206 214 218 221
22 29 34 38 36 34 39 40 39 25 43 324 274 262 259 269 274 268 266 276 275 271 264 258 257 254 249 250 249 244 244 239 243 240 243 245 245 242 243 243 244 241 238 238 238 234 227 217 208 203 200 198 199 200 198 200 203 206 207 208 206 207 213 218 217 218 216 217 219 220 218 216 210 212 212 208 208 207 205 209 207 206 214 214 221
55 53 45 35 27 15 10 2 1 350 282 273 263 257 266 262 251 257 259 258 263 269 261 259 253 246 243 246 249 246 243 241 242 245 244 248 247 248 246 249 246 249 239 242 238 231 221 213 208 207 205 203 204 204 202 201 204 205 207 205 206 208 214 217 215 220 218 219 219 223 224 217 208 212 207 206 206 207 207 210 209 208 212 212 213
47 43 41 33 16 355 346 334 325 296 262 248 256 253 254 253 251 248 242 252 243 248 255 251 254 253 250 247 249 250 246 247 248 249 250 251 252 255 253 252 254 254 243 239 237 230 226 220 218 215 211 211 209 208 206 205 207 205 206 207 208 209 212 214 216 219 219 218 219 221 222 216 211 212 210 207 201 207 207 210 210 206 213 214 211
14 6 359 354 330 303 302 287 274 261 253 245 238 241 244 246 245 241 237 243 248 243 247 251 251 253 252 253 251 251 251 248 246 247 248 251 249 251 247 248 250 246 246 242 236 231 225 221 221 219 215 215 214 212 208 208 209 207 208 210 210 212 213 216 218 219 217 215 217 218 220 213 212 214 215 210 207 204 204 207 209 206 212 215 213
345 331 322 311 311 302 284 269 266 266 259 247 240 235 232 236 232 230 234 237 240 241 240 246 248 254 257 253 256 251 250 250 247 248 248 249 247 247 241 242 247 248 245 242 239 224 221 217 218 218 217 217 216 214 213 213 213 210 210 210 211 212 215 216 218 219 217 217 218 219 217 210 210 216 217 214 208 206 206 205 210 208 208 210 214
321 314 309 303 296 291 294 296 293 292 289 280 272 257 243 237 235 227 232 238 238 236 231 238 243 247 254 254 256 259 254 252 250 248 245 245 246 245 245 242 235 245 247 240 234 226 221 223 221 220 218 218 215 214 215 216 215 214 213 212 211 212 215 216 217 218 218 216 219 220 216 209 210 214 217 213 208 209 205 209 211 209 208 204 211
318 311 306 306 307 307 307 304 299 295 283 275 267 262 263 255 247 237 231 234 239 233 233 232 239 238 248 250 251 252 253 255 249 246 244 242 242 244 244 245 235 237 241 241 237 231 225 221 223 219 218 216 214 213 214 215 215 216 216 214 214 214 215 216 218 218 218 218 219 219 216 211 213 215 216 213 209 209 207 211 210 208 203 201 211
292 296 298 297 298 298 297 297 297 295 293 286 275 271 264 260 265 263 252 248 252 244 242 240 240 243 240 246 243 246 253 251 251 247 241 238 240 243 243 246 243 241 237 233 232 230 233 224 225 220 221 216 214 214 214 214 214 214 214 216 215 215 217 219 220 219 218 218 218 218 217 215 215 216 214 212 201 206 203 213 207 203 202 203 213
269 265 265 270 274 277 280 280 281 285 287 289 292 293 285 276 269 267 268 254 249 245 247 245 244 242 243 239 240 244 247 249 244 241 242 240 238 239 241 241 239 244 243 240 236 235 235 233 230 225 224 218 217 219 216 213 214 215 215 215 215 215 216 218 220 219 218 217 217 216 215 215 212 213 211 208 205 201 199 211 206 199 204 205 205
260 261 260 259 257 259 265 274 274 269 271 272 273 276 281 283 281 272 259 262 258 250 244 246 244 242 244 241 239 243 244 245 247 243 242 241 239 237 235 238 237 235 242 243 245 243 238 234 231 231 228 224 225 225 222 218 214 214 213 216 214 214 214 215 216 216 217 215 216 215 215 211 205 203 204 207 206 204 204 206 201 196 197 199 200
256 255 256 255 254 250 251 259 270 272 263 261 261 268 278 290 290 288 274 244 222 227 227 230 240 245 247 245 241 241 238 243 246 250 252 249 245 239 235 237 238 235 237 240 238 244 240 239 235 230 227 227 228 228 225 218 216 212 209 212 212 214 212 212 213 214 219 218 217 213 210 203 203 204 205 206 210 211 212 214 209 200 199 195 199
254 252 252 256 254 246 242 248 256 268 279 276 276 284 297 288 284 290 292 303 306 295 276 260 252 256 256 251 246 245 245 250 252 249 249 248 250 247 244 241 241 241 239 235 237 237 241 240 240 241 236 231 231 229 225 222 217 213 207 208 211 213 211 214 215 216 220 216 212 209 207 198 201 203 201 209 213 211 207 206 200 197 201 205 203
263 271 308 302 297 284 276 281 286 288 300 308 306 303 292 286 297 285 292 295 287 280 279 277 275 269 267 263 262 256 251 254 251 249 252 258 256 258 256 252 245 241 231 229 236 235 239 240 239 241 242 240 240 234 226 224 216 213 211 204 208 208 208 214 213 214 215 213 206 201 201 201 207 195 192 193 185 186 185 174 164 165 168 167 152
281 288 301 299 296 292 287 284 291 303 315 320 328 328 319 308 293 298 299 288 285 284 277 271 272 273 274 277 269 256 255 253 254 258 262 267 265 257 255 250 255 247 231 243 241 237 241 238 236 240 245 245 242 239 226 226 220 211 207 205 209 204 207 209 211 211 211 209 202 199 197 202 195 187 188 176 170 167 163 155 159 168 169 154 147
266 271 281 295 314 341 350 355 356 347 342 348 341 338 330 325 323 316 308 303 297 288 284 279 276 278 286 293 282 261 259 263 265 263 261 259 256 261 259 250 233 235 236 237 239 239 240 239 241 241 248 250 247 240 226 225 221 214 209 203 214 210 208 211 210 208 209 210 204 201 198 197 188 188 186 176 169 169 165 168 169 178 178 178 175
14 36 31 20 10 3 357 343 336 345 340 343 338 337 338 326 324 320 320 318 316 311 303 299 293 291 292 288 277 272 267 268 268 267 263 261 261 255 256 248 228 236 235 234 245 231 242 240 237 237 241 250 250 237 226 226 224 220 208 206 214 215 216 219 217 211 210 207 201 196 197 194 188 189 188 179 175 165 167 169 176 176 172 170 179
28 23 20 14 4 355 346 338 342 353 358 357 349 347 339 327 322 320 325 326 326 320 315 311 305 301 297 295 291 284 281 276 272 270 263 260 260 263 260 251 249 249 247 236 239 231 229 234 236 232 236 248 256 242 230 227 222 219 210 216 212 215 218 217 217 208 203 200 197 196 192 190 182 190 184 180 174 163 167 172 174 175 172 165 164
27 18 11 0 357 351 354 357 355 356 6 1 354 348 340 330 325 326 327 325 322 316 332 340 337 337 335 330 318 302 292 286 282 270 265 264 260 261 263 244 236 250 251 244 241 242 237 228 230 233 226 240 250 240 222 223 219 214 211 218 212 208 214 211 210 201 198 198 199 191 187 184 184 185 178 180 174 165 169 172 170 166 169 175 172
36 21 1 355 356 351 342 351 357 1 2 357 349 343 339 329 325 327 326 320 330 349 342 330 321 317 318 318 316 313 302 293 288 281 273 272 265 259 261 253 242 244 252 254 237 238 247 234 229 234 227 229 244 237 213 217 215 213 209 217 211 203 206 208 196 197 192 189 190 190 187 182 180 169 174 178 175 173 174 175 173 168 176 188 179
18 24 14 353 339 345 356 4 360 10 354 354 347 343 339 327 328 332 332 340 343 334 324 315 311 312 311 309 305 304 299 294 289 288 285 274 273 276 270 264 256 244 257 255 246 242 249 250 233 230 232 228 238 235 202 210 211 210 207 208 210 205 208 204 190 182 176 191 188 188 185 173 160 163 171 173 175 173 168 160 156 171 180 190 156
8 4 18 357 336 344 352 6 355 11 360 347 344 344 335 334 335 334 335 336 332 324 317 314 312 312 314 313 312 307 303 300 295 293 293 287 280 279 281 272 266 263 255 259 253 250 251 256 243 227 231 228 227 234 205 198 207 209 207 205 203 214 212 184 182 179 191 182 183 188 181 172 159 162 167 166 161 156 150 156 169 182 190 166 154
16 10 11 359 342 351 350 358 355 9 353 348 346 344 336 339 336 334 330 328 319 312 308 309 311 312 313 313 311 308 303 300 301 302 299 292 291 291 280 276 270 264 260 258 259 252 253 260 255 234 231 232 229 229 203 194 201 204 206 209 208 212 187 167 172 188 183 191 181 171 166 169 156 159 162 160 161 159 156 153 174 167 155 153 148
6 10 10 2 352 354 352 350 348 358 353 354 354 351 347 344 339 332 329 322 315 313 309 307 303 301 302 304 305 306 307 306 304 303 297 294 299 303 291 286 278 269 262 263 260 258 256 263 260 252 280 276 335 311 183 189 190 195 205 216 230 219 172 164 179 189 188 165 137 142 144 155 157 161 169 169 166 152 117 135 138 131 126 127 126
25 23 6 356 359 356 355 350 346 359 354 356 359 353 349 343 336 334 326 318 315 313 311 307 302 300 302 305 307 309 309 306 307 310 309 306 309 306 300 292 277 266 271 270 270 265 257 258 255 259 305 8 11 22 353 181 180 174 184 153 80 134 145 153 154 158 143 139 135 139 148 153 145 152 160 162 165 155 135 151 137 129 116 110 107
15 19 7 5 10 357 354 350 350 2 357 353 356 353 344 344 337 331 325 323 318 312 307 303 302 302 305 307 316 322 320 319 322 325 327 321 318 322 314 306 302 288 277 273 275 267 248 249 247 236 244 29 33 42 32 20 127 167 170 166 149 134 138 130 120 140 139 145 140 140 145 148 146 154 159 160 162 156 159 140 125 121 119 128 131
13 12 11 358 6 7 2 353 346 357 359 351 353 355 351 341 333 330 326 319 312 307 304 304 307 311 310 314 330 335 335 345 358 353 353 346 338 325 314 316 324 306 288 280 289 279 262 249 240 203 103 72 62 67 62 55 30 353 217 177 149 127 110 101 100 113 122 124 132 138 141 145 151 155 148 139 139 142 141 129 125 126 127 143 151
10 5 2 359 5 7 2 356 346 352 357 348 350 349 348 340 335 331 325 317 308 300 305 314 332 326 326 328 341 348 4 22 16 7 2 360 355 357 4 8 1 354 341 319 294 275 258 241 198 120 95 84 75 71 76 76 62 68 41 66 85 88 94 92 90 100 101 105 111 115 123 124 119 118 116 114 111 112 113 115 126 139 147 151 147
16 0 1 357 7 8 3 358 350 350 352 344 343 344 347 342 336 333 326 321 316 321 319 333 339 338 338 337 342 356 11 35 34 25 20 6 4 1 18 16 359 338 327 323 321 303 272 216 139 116 107 96 92 83 76 86 89 95 89 78 85 92 94 108 108 104 103 104 103 104 104 106 114 108 112 118 122 115 109 105 120 141 129 120 116
5 3 359 360 357 1 1 2 350 353 347 341 342 341 345 343 338 333 331 328 328 328 326 340 343 344 345 340 346 353 4 31 47 44 39 30 15 16 16 10 1 337 310 282 308 41 9 35 87 111 127 105 86 84 85 98 100 100 115 116 114 112 112 104 108 113 107 100 102 108 120 119 124 125 127 129 117 103 101 119 137 129 124 128 135
7 359 346 344 340 353 351 356 355 356 350 342 342 343 343 341 339 333 334 335 334 335 345 349 348 347 349 345 348 349 359 15 30 34 22 21 33 38 35 24 348 8 25 37 54 58 43 87 81 40 44 109 109 108 98 89 86 83 83 89 94 102 110 115 118 115 113 111 111 114 117 129 131 123 120 113 114 118 120 130 134 137 140 142 156
7 358 348 349 339 345 344 355 360 359 351 346 342 345 345 342 341 338 334 333 339 343 345 347 351 345 347 347 347 348 347 355 13 32 35 26 6 14 31 34 38 36 41 45 53 62 68 72 95 97 86 94 101 100 93 92 89 84 85 90 99 103 103 105 108 109 96 103 115 115 121 115 109 105 110 121 128 129 136 136 141 143 151 144 135